Location: Biver
(43.4324°N, 5.4668°E)
Time: 06:40:11
(UTC+00:00)

Daily predictions for brighter satellites

Satellite Brightness Start Highest point End
(mag) Time Altitude Azimuth Time Altitude Azimuth Time Altitude Azimuth
Tsikada Rocket 4.4 16:55:29 10° SSW 17:01:47 73° W 17:08:05 10° N
NOAA 12 4.1 16:57:12 10° SSE 17:02:26 85° ENE 17:07:42 10° NNW
RESURS DK-1 3.4 17:01:20 10° SW 17:05:19 45° WNW 17:09:19 10° NNE
MOS 1 Rocket 4.3 17:05:24 10° NE 17:08:46 22° E 17:12:06 10° SE
ATLAS 3B R/B 3.2 17:02:09 10° NW 17:09:08 72° WSW 17:16:21 10° SSE
Cosmos 2228 3.1 17:05:23 10° N 17:09:36 56° E 17:13:48 10° SSE
BREEZE-M DEB (TANK) 3.3 17:07:21 10° W 17:10:10 38° SSW 17:13:18 10° SE
Cosmos 2142 Rocket 4.5 17:05:37 10° N 17:11:45 63° E 17:17:48 10° SSE
Meteor 2-5 Rocket 3.7 17:06:58 10° S 17:12:33 85° E 17:18:07 10° NNE
CZ-4C R/B 3.6 17:09:06 10° W 17:13:38 30° NW 17:18:57 10° NNE
SKYMED 2 4.3 17:10:51 10° NNE 17:14:49 34° E 17:18:46 10° SSE
SJ 16-02 2.8 17:12:28 10° SE 17:15:34 19° E 17:18:39 10° NE
Cosmos 1538 Rocket 4.5 17:11:07 10° N 17:15:54 36° ENE 17:20:38 10° SE
CZ-3B R/B 3.2 17:15:10 10° NNW 17:17:02 17° NE 17:20:09 10° ENE
Cosmos 1777 Rocket 4.2 17:13:31 10° S 17:18:38 55° ESE 17:23:47 10° NNE
CORIOLIS 4.3 17:13:46 10° SSE 17:19:10 83° WSW 17:24:36 10° NNW
Cosmos 2263 Rocket 2.7 17:14:56 10° SW 17:20:33 62° WNW 17:26:11 10° NNE
NOAA 11 4.3 17:19:07 10° SSE 17:24:37 83° WSW 17:30:10 10° NNW
Cosmos 1455 3.5 17:24:06 10° NNE 17:26:56 20° ENE 17:29:46 10° ESE
Cosmos 2058 Rocket 3.5 17:24:46 10° N 17:29:02 40° ENE 17:33:16 10° SSE
X-37B 1.9 17:28:23 10° SSW 17:31:11 29° SSE 17:33:14 15° E
Cosmos 1300 3.0 17:27:29 10° NNW 17:31:17 69° W 17:35:04 10° S
ARGOS 4.1 17:32:44 10° ESE 17:36:54 24° ENE 17:41:07 10° NNE
Okean 1-7 Rocket 3.9 17:35:28 10° SSE 17:39:48 47° E 17:44:11 10° NNE
CREW DRAGON DEMO-1 DEB 4.4 17:38:50 10° NW 17:41:04 20° NNE 17:41:51 18° NE
Lacrosse 5 2.4 17:36:50 10° NW 17:41:33 38° NNE 17:44:59 17° E
ISS -3.2 17:40:03 10° SW 17:43:17 44° SE 17:45:00 23° E
Cosmos 1939 Rocket 3.0 17:39:41 10° S 17:43:49 84° W 17:47:57 10° NNW
Cosmos 1943 4.1 17:38:30 10° NW 17:43:59 52° WSW 17:49:26 10° S
Cosmos 1726 Rocket 3.6 17:40:13 10° N 17:44:35 85° W 17:48:59 10° S
ERS-2 2.5 17:42:03 10° NNE 17:45:29 42° E 17:48:57 10° S
Meteor 1-24 Rocket 4.1 17:41:26 10° SSW 17:46:44 62° WNW 17:52:00 10° N
EXPRESS MD2 4.2 17:38:35 10° WNW 17:47:09 72° NNE 17:50:21 18° ESE
CZ-2C R/B 4.0 17:45:49 18° ENE 17:47:11 19° E 17:51:06 10° SE
PSLV R/B 4.4 17:43:54 10° NNE 17:47:52 39° E 17:51:49 10° SSE
COSMOS 2455 2.8 17:41:52 10° SSW 17:47:53 82° ESE 17:53:57 10° NNE
Cosmos 1626 Rocket 4.3 17:47:14 10° SSE 17:51:05 31° E 17:54:01 15° NE
Cosmos 1844 4.1 17:47:37 10° S 17:52:55 43° ESE 17:57:10 16° NE
IRS-1C Rocket 4.0 17:49:24 10° SSE 17:54:37 71° ENE 17:59:52 10° N
Cosmos 1833 Rocket 4.4 17:52:22 10° NNE 17:54:41 13° NE 17:54:41 13° NE
CZ-4 R/B 1.5 17:52:09 10° SSE 17:56:09 51° ENE 18:00:04 10° N
Feng Yun 1-1 Rocket 4.3 17:51:54 10° SSE 17:57:18 83° WSW 18:02:52 10° NNW
COSMO-SKYMED 1 2.8 17:58:41 10° N 18:03:02 72° WNW 18:07:20 10° SSW
USA 267 4.1 18:04:12 23° E 18:07:03 31° SE 18:12:43 10° S
Okean-O 2.5 18:07:51 10° SSE 18:12:15 70° ENE 18:16:41 10° N
CZ-4B R/B 2.9 18:09:57 10° N 18:13:05 35° WNW 18:16:08 10° SW
CZ-2C R/B 3.3 18:08:29 10° S 18:13:43 76° WSW 18:19:17 10° NNW
Cosmos 1844 Rocket 2.6 18:09:12 10° SSW 18:14:51 81° ESE 18:19:24 16° NNE
Okean O Rocket 4.2 18:11:51 10° SSW 18:15:24 23° W 18:18:57 10° NW
H-2A R/B 1.9 18:11:17 10° SSE 18:16:11 68° ENE 18:21:15 10° N
OE (NEXTSAT) 4.4 18:13:53 10° W 18:17:18 62° N 18:17:46 54° NNE
Meteor 1-21 Rocket 4.1 18:12:03 10° S 18:17:31 70° E 18:23:03 10° NNE
Cosmos 923 Rocket 4.1 18:12:26 10° NNW 18:17:42 55° ENE 18:22:54 10° SE
Aureole 2 Rocket 2.8 18:15:24 10° SW 18:18:19 52° WNW 18:19:29 31° N
Cosmos 1689 Rocket 1.9 18:20:01 81° SSW 18:20:01 81° SSW 18:22:44 10° SSW
Cosmos 158 Rocket 3.9 18:17:48 10° NNW 18:23:08 68° ENE 18:28:29 10° SSE
Cosmos 1898 Rocket 3.9 18:18:22 10° S 18:23:15 39° ESE 18:23:42 39° E
Cosmos 1680 Rocket 3.6 18:20:00 10° N 18:25:05 48° ENE 18:26:36 37° ESE
Cosmos 1627 Rocket 4.5 18:23:27 10° SSE 18:29:26 55° E 18:35:30 10° NNE
Cosmos 2098 Rocket 4.5 18:24:07 10° SSE 18:30:44 48° E 18:37:47 10° NNE
Cosmos 1602 Rocket 3.4 18:26:48 10° S 18:31:03 63° E 18:31:34 57° ENE
Cosmos 1818 3.7 18:26:30 10° SW 18:31:55 75° NW 18:34:52 28° NNE
SAR-Lupe-4 4.0 18:31:28 26° N 18:33:16 59° WNW 18:36:47 10° SSW
YAOGAN 1 2.7 18:29:55 10° S 18:34:13 71° WSW 18:38:33 10° NNW
Cosmos 1428 Rocket 4.5 18:28:19 10° SSE 18:34:25 57° E 18:40:35 10° NNE
CSL-04 Rocket 3.5 18:32:40 10° SSE 18:38:00 73° ENE 18:43:29 10° N
Helios 1A Rocket 3.0 18:35:00 10° S 18:39:07 78° WSW 18:43:18 10° NNW
USA 234 3.9 18:40:20 33° NE 18:41:43 36° NNE 18:47:33 10° NW
Cosmos 1092 Rocket 3.9 18:38:18 10° S 18:44:31 89° E 18:50:43 10° N
ATLAS 5 CENTAUR R/B 4.1 18:43:12 10° WNW 18:45:31 14° NNW 18:47:37 11° N
Iridium 4 Rocket 3.5 18:41:58 10° N 18:47:41 81° E 18:52:55 10° S
SJ 16-02 2.5 18:49:38 10° SW 18:53:48 41° WNW 18:55:59 24° N
Cosmos 2344 4.4 18:45:32 10° NNW 18:54:40 58° NE 18:59:35 37° ESE
Cosmos 1937 Rocket 4.2 18:53:14 10° S 18:56:45 40° SSE 18:56:45 40° SSE
Cosmos 1455 4.2 18:59:16 10° NNW 19:02:33 28° W 19:05:50 10° SSW
Cosmos 2112 Rocket 3.9 18:57:18 10° NNW 19:02:18 80° N 19:02:18 80° N
X-37B 3.4 19:04:26 10° W 19:05:31 20° W 19:05:31 20° W
ARGOS 3.9 19:11:40 10° S 19:16:50 50° W 19:22:03 10° NNW
COSMOS 2406 4.4 19:11:45 10° NNW 19:14:49 31° N 19:14:49 31° N
Cosmos 44 4.0 19:15:06 10° SW 19:18:46 51° WSW 19:18:46 51° WSW
ISS -0.7 19:17:02 10° W 19:17:58 16° W 19:17:58 16° W
Lacrosse 5 2.7 19:19:48 10° WNW 19:24:15 47° WSW 19:24:15 47° WSW
CZ-2C R/B 3.1 19:27:19 59° NW 19:27:50 62° WNW 19:33:21 10° SSW
NOSS 3-1 (C) 4.0 19:26:08 10° NW 19:33:48 90° E 19:34:40 75° SE
Cosmos 1833 Rocket 4.5 19:34:28 10° NNW 19:36:25 22° NNW 19:36:25 22° NNW
Cosmos 2082 Rocket 4.4 19:36:55 10° NNW 19:37:48 14° N 19:37:48 14° N
USA 267 3.5 19:51:34 62° WSW 19:51:34 62° WSW 19:56:57 10° WSW
USA 229 DEB 4.1 19:43:20 10° NW 19:49:18 63° NNW 19:49:18 63° NNW
USA 229 4.1 19:43:26 10° NW 19:49:21 62° NNW 19:49:21 62° NNW
NOSS 3-1 (A) 4.4 19:58:43 10° NW 20:04:26 58° NW 20:04:26 58° NW
